When you browse on this site, cookies collect data to enhance your experience and personalize the content and advertising you see.
Visit our Privacy Policy to learn more. By continuing to use the site, you agree to this use of cookies and data.

Hourly Weather Banbridge

Today, 3 July, Friday

Time Temperature Precipitation Wind Pressure Humidity
00:00 +10°C° 0 mm 4 mps 750 mmHg 96%
01:00 +9°C° 0.5 mm 5 mps 749 mmHg 96%
02:00 +9°C° 0.5 mm 6 mps 749 mmHg 96%
03:00 +10°C° 0.5 mm 7 mps 748 mmHg 96%
04:00 +10°C° 0.3 mm 7 mps 747 mmHg 96%
05:00 +10°C° 0.3 mm 7 mps 747 mmHg 96%
06:00 +10°C° 0 mm 7 mps 746 mmHg 95%
07:00 +11°C° 0.4 mm 7 mps 746 mmHg 95%
08:00 +13°C° 0.4 mm 6 mps 746 mmHg 96%
09:00 +13°C° 0.4 mm 6 mps 746 mmHg 96%
10:00 +14°C° 0.1 mm 7 mps 746 mmHg 95%
11:00 +14°C° 0.1 mm 7 mps 746 mmHg 94%
12:00 +15°C° 0 mm 6 mps 746 mmHg 95%
13:00 +15°C° 0.6 mm 6 mps 746 mmHg 96%
14:00 +15°C° 0.6 mm 5 mps 746 mmHg 96%
15:00 +14°C° 0.6 mm 5 mps 746 mmHg 97%
16:00 +14°C° 0.6 mm 3 mps 746 mmHg 97%
17:00 +14°C° 0.6 mm 2 mps 746 mmHg 97%
18:00 +14°C° 0.6 mm 1 mps 746 mmHg 98%
19:00 +13°C° 0.1 mm 1 mps 746 mmHg 97%
20:00 +13°C° 0.1 mm 1 mps 746 mmHg 97%
21:00 +13°C° 0.1 mm 1 mps 746 mmHg 97%
22:00 +13°C° 0.1 mm 1 mps 746 mmHg 98%
23:00 +13°C° 0.1 mm 1 mps 746 mmHg 98%

Tomorrow, 4 July, Saturday

Time Temperature Precipitation Wind Pressure Humidity
00:00 +13°C° 0.1 mm 1 mps 746 mmHg 98%
01:00 +13°C° 0.2 mm 1 mps 746 mmHg 98%
02:00 +13°C° 0.2 mm 1 mps 746 mmHg 98%
03:00 +13°C° 0.2 mm 0 mps 745 mmHg 98%
04:00 +14°C° 0.2 mm 1 mps 745 mmHg 98%
05:00 +14°C° 0.2 mm 1 mps 745 mmHg 98%
06:00 +14°C° 0.2 mm 1 mps 745 mmHg 98%
07:00 +14°C° 0.1 mm 1 mps 746 mmHg 98%
08:00 +15°C° 0.1 mm 2 mps 746 mmHg 98%
09:00 +15°C° 0.1 mm 2 mps 746 mmHg 98%
10:00 +15°C° 0.2 mm 2 mps 746 mmHg 97%
11:00 +15°C° 0.2 mm 2 mps 746 mmHg 97%
12:00 +14°C° 0.2 mm 3 mps 747 mmHg 97%
13:00 +14°C° 0.1 mm 3 mps 747 mmHg 96%
14:00 +14°C° 0.1 mm 3 mps 747 mmHg 95%
15:00 +16°C° 0.1 mm 2 mps 747 mmHg 95%
16:00 +16°C° 0.1 mm 3 mps 746 mmHg 94%
17:00 +15°C° 0.1 mm 4 mps 746 mmHg 94%
18:00 +17°C° 0.1 mm 4 mps 745 mmHg 94%
19:00 +15°C° 0.1 mm 5 mps 744 mmHg 93%
20:00 +15°C° 0.1 mm 5 mps 744 mmHg 93%
21:00 +15°C° 0.1 mm 6 mps 743 mmHg 92%
22:00 +15°C° 0.5 mm 7 mps 742 mmHg 93%
23:00 +15°C° 0.5 mm 8 mps 741 mmHg 94%

Day after tomorrow, 5 July, Sunday

Time Temperature Precipitation Wind Pressure Humidity
00:00 +16°C° 0.5 mm 9 mps 740 mmHg 95%
01:00 +13°C° 0.2 mm 9 mps 740 mmHg 93%
02:00 +12°C° 0.2 mm 9 mps 741 mmHg 91%
03:00 +11°C° 0.2 mm 9 mps 741 mmHg 89%
04:00 +10°C° 0.1 mm 8 mps 742 mmHg 89%
05:00 +10°C° 0.1 mm 8 mps 743 mmHg 88%
06:00 +9°C° 0.1 mm 8 mps 744 mmHg 88%
07:00 +10°C° 0.1 mm 8 mps 744 mmHg 84%
08:00 +11°C° 0.1 mm 8 mps 744 mmHg 80%
09:00 +12°C° 0.1 mm 8 mps 745 mmHg 76%
10:00 +12°C° 0.3 mm 8 mps 745 mmHg 77%
11:00 +12°C° 0.3 mm 8 mps 745 mmHg 77%
12:00 +12°C° 0.3 mm 9 mps 745 mmHg 78%
13:00 +12°C° 0.5 mm 8 mps 745 mmHg 80%
14:00 +11°C° 0.5 mm 8 mps 745 mmHg 83%
15:00 +11°C° 0.5 mm 8 mps 745 mmHg 85%
16:00 +11°C° 0.3 mm 8 mps 745 mmHg 86%
17:00 +11°C° 0.3 mm 7 mps 745 mmHg 87%
18:00 +11°C° 0.3 mm 7 mps 745 mmHg 88%
19:00 +10°C° 0.1 mm 7 mps 746 mmHg 88%
20:00 +10°C° 0.1 mm 7 mps 747 mmHg 88%
21:00 +9°C° 0.1 mm 7 mps 748 mmHg 88%
22:00 +9°C° 0 mm 7 mps 748 mmHg 88%
23:00 +8°C° 0 mm 6 mps 749 mmHg 89%

6 July, Monday

Time Temperature Precipitation Wind Pressure Humidity
00:00 +8°C° 0 mm 6 mps 750 mmHg 89%
01:00 +8°C° 0 mm 6 mps 750 mmHg 88%
02:00 +8°C° 0 mm 7 mps 751 mmHg 86%
03:00 +8°C° 0 mm 7 mps 751 mmHg 84%
04:00 +8°C° 0 mm 7 mps 752 mmHg 84%
05:00 +9°C° 0 mm 7 mps 753 mmHg 84%
06:00 +10°C° 0 mm 7 mps 753 mmHg 84%
07:00 +11°C° 0.1 mm 7 mps 754 mmHg 83%
08:00 +11°C° 0.1 mm 6 mps 755 mmHg 81%
09:00 +13°C° 0.1 mm 6 mps 756 mmHg 80%
10:00 +14°C° 0.1 mm 6 mps 757 mmHg 77%
11:00 +15°C° 0.1 mm 6 mps 757 mmHg 73%
12:00 +15°C° 0.1 mm 5 mps 758 mmHg 70%
13:00 +16°C° 0.2 mm 5 mps 758 mmHg 70%
14:00 +16°C° 0.2 mm 6 mps 759 mmHg 71%
15:00 +16°C° 0.2 mm 6 mps 759 mmHg 71%
16:00 +15°C° 0.1 mm 5 mps 759 mmHg 72%
17:00 +15°C° 0.1 mm 5 mps 760 mmHg 72%
18:00 +14°C° 0.1 mm 5 mps 760 mmHg 73%
19:00 +12°C° 0 mm 4 mps 760 mmHg 79%
20:00 +11°C° 0 mm 3 mps 760 mmHg 84%
21:00 +9°C° 0 mm 2 mps 760 mmHg 90%
22:00 +8°C° 0 mm 2 mps 760 mmHg 91%
23:00 +8°C° 0 mm 2 mps 760 mmHg 93%

7 July, Tuesday

Time Temperature Precipitation Wind Pressure Humidity
00:00 +7°C° 0 mm 2 mps 760 mmHg 94%
01:00 +7°C° 0 mm 2 mps 760 mmHg 95%
02:00 +7°C° 0 mm 3 mps 760 mmHg 95%
03:00 +7°C° 0 mm 3 mps 760 mmHg 96%
04:00 +8°C° 0 mm 3 mps 760 mmHg 95%
05:00 +8°C° 0 mm 3 mps 760 mmHg 94%
06:00 +9°C° 0 mm 3 mps 759 mmHg 93%
07:00 +10°C° 0 mm 3 mps 759 mmHg 89%
08:00 +11°C° 0 mm 3 mps 760 mmHg 85%
09:00 +12°C° 0 mm 3 mps 760 mmHg 80%
10:00 +12°C° 0.3 mm 3 mps 759 mmHg 85%
11:00 +11°C° 0.3 mm 3 mps 759 mmHg 90%
12:00 +10°C° 0.3 mm 3 mps 759 mmHg 94%
13:00 +10°C° 0.6 mm 3 mps 758 mmHg 95%
14:00 +10°C° 0.6 mm 4 mps 758 mmHg 96%
15:00 +10°C° 0.6 mm 4 mps 758 mmHg 96%
16:00 +11°C° 1 mm 4 mps 757 mmHg 97%
17:00 +11°C° 1 mm 4 mps 756 mmHg 97%
18:00 +10°C° 1 mm 5 mps 756 mmHg 97%
19:00 +11°C° 1 mm 4 mps 755 mmHg 98%
20:00 +12°C° 1 mm 4 mps 755 mmHg 98%
21:00 +13°C° 1 mm 4 mps 755 mmHg 98%
22:00 +13°C° 0.2 mm 4 mps 754 mmHg 98%
23:00 +14°C° 0.2 mm 5 mps 754 mmHg 97%

8 July, Wednesday

Time Temperature Precipitation Wind Pressure Humidity
00:00 +15°C° 0.2 mm 6 mps 753 mmHg 97%
01:00 +15°C° 0.3 mm 6 mps 753 mmHg 96%
02:00 +15°C° 0.3 mm 7 mps 752 mmHg 96%
03:00 +15°C° 0.3 mm 7 mps 752 mmHg 96%
04:00 +15°C° 0.1 mm 7 mps 752 mmHg 96%
05:00 +15°C° 0.1 mm 7 mps 752 mmHg 95%
06:00 +15°C° 0.1 mm 7 mps 751 mmHg 95%
07:00 +15°C° 0.1 mm 7 mps 751 mmHg 95%
08:00 +15°C° 0.1 mm 7 mps 751 mmHg 96%
09:00 +15°C° 0.1 mm 7 mps 751 mmHg 96%
10:00 +15°C° 0.1 mm 7 mps 751 mmHg 95%
11:00 +15°C° 0.1 mm 7 mps 751 mmHg 95%
12:00 +16°C° 0.1 mm 7 mps 751 mmHg 94%
13:00 +16°C° 0.1 mm 7 mps 751 mmHg 91%
14:00 +16°C° 0.1 mm 7 mps 752 mmHg 88%
15:00 +16°C° 0.1 mm 7 mps 752 mmHg 85%
16:00 +16°C° 0.1 mm 6 mps 752 mmHg 85%
17:00 +15°C° 0.1 mm 6 mps 753 mmHg 85%
18:00 +15°C° 0.1 mm 5 mps 753 mmHg 86%
19:00 +13°C° 0 mm 5 mps 754 mmHg 87%
20:00 +12°C° 0 mm 4 mps 754 mmHg 88%
21:00 +11°C° 0 mm 3 mps 755 mmHg 90%
22:00 +10°C° 0 mm 3 mps 755 mmHg 91%
23:00 +9°C° 0 mm 3 mps 755 mmHg 91%
Show more